Weather in Baton Rouge

United States     30˚26′45″N   91˚05′23″W
temp.,
°C
wind,
m/s
gust,
m/s
humid.,
%
clouds,
%
prec.,
mm/h
press.,
hPa
HPBL,
m
29 november, sun
sun2900:00+16˚e2593100 0.6 1017268
03:00+16˚ene4893100 1.6 1015343
06:00+15˚ne4995100 8.9 1013396
09:00+15˚ne3794100 10.1 1013277
12:00+16˚nnw2395100 14.2 1011196
15:00+17˚nw499099 1.3 1009587
18:00+14˚nw7128595 1.3 1014874
21:00+12˚nw61275100 0.1 10171182
30 november, mon
mon3000:00+11˚nw5108083 0.1 10181009
03:00+8˚nw4118051 0.0 1018725
06:00+8˚nw598155 0.0 1020878
09:00+7˚nw61070100 0.0 1023912
12:00+9˚nw695160 0.0 10231101
15:00+9˚nnw610460 0.0 10211183
18:00+6˚nnw410540 0.0 1024658
21:00+5˚nw37570 0.0 1025409
1 december, tue
tue100:00+4˚nw26570 0.0 1026246
03:00+3˚nw25580 0.0 1026174
06:00+2˚n23610 0.0 1026131
09:00+7˚ne00440 0.0 1027271
12:00+12˚s11310 0.0 1025687
15:00+13˚s11320 0.0 1023842
18:00+8˚sse23480 0.0 1024201
21:00+6˚se23560 0.0 1024119
2 december, wed
wed200:00+5˚se23600 0.0 1024120
03:00+4˚e23650 0.0 102393
06:00+5˚ene37650 0.0 1023148
09:00+10˚ese7146173 0.0 1022415
12:00+16˚se7146154 0.0 10191167
15:00+15˚se51281100 2.1 1018941
18:00+14˚sse2109199 2.9 1019775
21:00+14˚se21194100 3.2 1019684
3 december, thu
thu300:00+14˚nne1197100 5.8 102044
03:00+12˚nnw599099 0.3 1020385
06:00+8˚nnw6118599 0.3 1022423
09:00+8˚nnw5106913 0.0 1024458
12:00+12˚nnw485310 0.0 1023617
15:00+12˚nnw475298 0.0 1022672
18:00+8˚n386699 0.0 1024417
21:00+7˚n3870100 0.0 1025357